Weather History for Jacksonville, NC

Change the Weather History Date:

Thursday, January 10, 2013

  Actual Average Record
Temperature  
Mean Temperature 55 °F -  
Max Temperature 66 °F 52 °F 73 °F (2008)
Min Temperature 44 °F 32 °F 23 °F (2004)
Degree Days  
Heating Degree Days 10    
Growing Degree Days 5 (Base 50)    
Moisture  
Dew Point 43 °F    
Average Humidity 69    
Maximum Humidity 100    
Minimum Humidity 39    
Precipitation  
Precipitation 0.00 in - - ()
Sea Level Pressure  
Sea Level Pressure 30.46 in    
Wind  
Wind Speed 4 mph (ENE)    
Max Wind Speed 14 mph    
Max Gust Speed 18 mph    
Visibility 8 miles    
Events      
Averages and records for this station are not official NWS values.
T = Trace of Precipitation, MM = Missing Value Source: NWS Daily Summary

Daily Weather History Graph

Daily Weather History Graph

Search for Another Location

Airport:

Trip Planner

Search our weather history database for the weather conditions in past years. The results will help you decide how hot, cold, wet, or windy it might be!

Date:

Astronomy

Jan. 10, 2013 Rise Set
Actual Time 7:18 AM EST 5:18 PM EST
Civil Twilight 6:50 AM EST 5:45 PM EST
Nautical Twilight 6:19 AM EST 6:16 PM EST
Astronomical Twilight 5:49 AM EST 6:47 PM EST
Moon 5:56 AM EST (1/10) 4:23 PM EST (1/10)
Length of Visible Light 10h 54m
Length of Day
9h 59m
Waning Crescent, 2% of the Moon is Illuminated
Jan 10
Waning Crescent
Jan 11
New
Jan 18
First Quarter
Jan 26
Full
Feb 3
Last Quarter

Hourly Weather History & Observations

Time (EST) Temp. Windchill Dew Point Humidity Pressure Visibility Wind Dir Wind Speed Gust Speed Precip Events Conditions
12:15 AM 51.8 °F - 51.8 °F 100% 30.42 in 3.0 mi Calm Calm - N/A   Clear
12:35 AM 51.8 °F - 50.0 °F 94% 30.43 in 4.0 mi Calm Calm - N/A   Clear
1:15 AM 51.8 °F - 50.0 °F 94% 30.43 in 2.0 mi Calm Calm - N/A   Clear
1:35 AM 51.8 °F - 48.2 °F 88% 30.43 in 9.0 mi Calm Calm - N/A   Clear
1:55 AM 51.8 °F - 48.2 °F 88% 30.44 in 6.0 mi Calm Calm - N/A   Clear
2:15 AM 51.8 °F - 48.2 °F 88% 30.43 in 0.2 mi Calm Calm - N/A   Unknown
2:35 AM 51.8 °F - 48.2 °F 88% 30.43 in 0.2 mi Calm Calm - N/A   Unknown
2:55 AM 50.0 °F - 48.2 °F 94% 30.42 in 0.5 mi Calm Calm - N/A   Unknown
3:15 AM 48.2 °F - 46.4 °F 93% 30.42 in 0.2 mi Calm Calm - N/A   Unknown
3:35 AM 50.0 °F - 48.2 °F 94% 30.42 in 8.0 mi Calm Calm - N/A   Clear
3:55 AM 48.2 °F - 46.4 °F 93% 30.41 in 1.0 mi Calm Calm - N/A   Clear
4:15 AM 48.2 °F - 46.4 °F 93% 30.43 in 3.0 mi Calm Calm - N/A   Clear
4:35 AM 48.2 °F - 48.2 °F 100% 30.43 in 2.5 mi Calm Calm - N/A   Clear
4:55 AM 50.0 °F - 48.2 °F 94% 30.43 in 3.0 mi Calm Calm - N/A   Clear
5:15 AM 48.2 °F - 48.2 °F 100% 30.43 in 0.5 mi Calm Calm - N/A   Unknown
5:35 AM 48.2 °F - 46.4 °F 93% 30.43 in 2.5 mi Calm Calm - N/A   Clear
5:55 AM 48.2 °F - 46.4 °F 93% 30.44 in 8.0 mi Calm Calm - N/A   Clear
6:15 AM 48.2 °F - 46.4 °F 93% 30.45 in 0.2 mi Calm Calm - N/A   Unknown
6:35 AM 46.4 °F - 44.6 °F 93% 30.46 in 1.8 mi Calm Calm - N/A   Clear
6:55 AM 46.4 °F - 44.6 °F 93% 30.47 in 1.5 mi Calm Calm - N/A   Clear
7:35 AM 44.6 °F - 42.8 °F 93% 30.49 in 0.2 mi Calm Calm - N/A   Unknown
7:55 AM 46.4 °F - 44.6 °F 93% 30.50 in 5.0 mi Calm Calm - N/A   Clear
8:15 AM 51.8 °F - 48.2 °F 88% 30.50 in 9.0 mi NNE 3.5 mph - N/A   Clear
8:55 AM 55.4 °F - 51.8 °F 88% 30.52 in 10.0 mi NNE 5.8 mph - N/A   Clear
9:35 AM 59.0 °F - 51.8 °F 77% 30.52 in 10.0 mi NE 11.5 mph - N/A   Clear
10:15 AM 60.8 °F - 51.8 °F 72% 30.52 in 10.0 mi NE 13.8 mph - N/A   Clear
10:35 AM 62.6 °F - 50.0 °F 63% 30.51 in 10.0 mi NE 13.8 mph - N/A   Clear
10:55 AM 62.6 °F - 50.0 °F 63% 30.50 in 10.0 mi NE 9.2 mph - N/A   Clear
11:15 AM 62.6 °F - 50.0 °F 63% 30.49 in 10.0 mi NE 11.5 mph - N/A   Clear
11:35 AM 64.4 °F - 48.2 °F 56% 30.48 in 10.0 mi NE 10.4 mph - N/A   Clear
11:55 AM 64.4 °F - 48.2 °F 56% 30.47 in 10.0 mi East 11.5 mph 17.3 mph N/A   Clear
12:15 PM 64.4 °F - 46.4 °F 52% 30.47 in 10.0 mi ENE 12.7 mph 16.1 mph N/A   Clear
12:35 PM 64.4 °F - 46.4 °F 52% 30.46 in 10.0 mi ENE 8.1 mph - N/A   Clear
12:55 PM 66.2 °F - 46.4 °F 49% 30.45 in 10.0 mi NE 9.2 mph - N/A   Clear
1:15 PM 66.2 °F - 46.4 °F 49% 30.45 in 10.0 mi NE 10.4 mph 18.4 mph N/A   Clear
1:35 PM 66.2 °F - 44.6 °F 46% 30.45 in 10.0 mi ENE 6.9 mph - N/A   Clear
1:55 PM 66.2 °F - 44.6 °F 46% 30.45 in 10.0 mi ENE 10.4 mph - N/A   Clear
2:35 PM 64.4 °F - 42.8 °F 45% 30.45 in 10.0 mi East 11.5 mph - N/A   Clear
2:55 PM 64.4 °F - 42.8 °F 45% 30.46 in 10.0 mi ENE 8.1 mph - N/A   Clear
3:15 PM 64.4 °F - 42.8 °F 45% 30.46 in 10.0 mi East 9.2 mph - N/A   Clear
3:35 PM 64.4 °F - 42.8 °F 45% 30.46 in 10.0 mi East 10.4 mph - N/A   Clear
3:55 PM 64.4 °F - 41.0 °F 42% 30.46 in 10.0 mi ENE 9.2 mph - N/A   Clear
4:15 PM 62.6 °F - 39.2 °F 42% 30.47 in 10.0 mi East 9.2 mph - N/A   Clear
4:35 PM 60.8 °F - 35.6 °F 39% 30.47 in 10.0 mi East 6.9 mph - N/A   Clear
4:55 PM 60.8 °F - 35.6 °F 39% 30.47 in 10.0 mi East 5.8 mph - N/A   Clear
5:15 PM 57.2 °F - 37.4 °F 48% 30.47 in 10.0 mi ENE 5.8 mph - N/A   Clear
5:35 PM 57.2 °F - 37.4 °F 48% 30.47 in 10.0 mi ENE 9.2 mph - N/A   Clear
5:55 PM 55.4 °F - 37.4 °F 51% 30.48 in 10.0 mi ENE 11.5 mph - N/A   Clear
6:15 PM 55.4 °F - 37.4 °F 51% 30.48 in 10.0 mi ENE 9.2 mph - N/A   Clear
6:35 PM 53.6 °F - 37.4 °F 54% 30.48 in 10.0 mi ENE 9.2 mph - N/A   Clear
6:55 PM 51.8 °F - 37.4 °F 58% 30.48 in 10.0 mi ENE 6.9 mph - N/A   Clear
7:15 PM 51.8 °F - 35.6 °F 54% 30.48 in 10.0 mi ENE 6.9 mph - N/A   Clear
7:35 PM 51.8 °F - 35.6 °F 54% 30.48 in 10.0 mi ENE 6.9 mph - N/A   Clear
7:55 PM 50.0 °F - 35.6 °F 58% 30.48 in 10.0 mi NE 8.1 mph - N/A   Clear
8:15 PM 48.2 °F - 35.6 °F 62% 30.48 in 10.0 mi NE 6.9 mph - N/A   Clear
8:35 PM 48.2 °F - 35.6 °F 62% 30.48 in 10.0 mi NNE 5.8 mph - N/A   Clear
8:55 PM 46.4 °F 44.3 °F 35.6 °F 66% 30.47 in 10.0 mi NNE 4.6 mph - N/A   Clear
9:15 PM 48.2 °F - 37.4 °F 66% 30.47 in 10.0 mi NE 8.1 mph - N/A   Clear
9:55 PM 46.4 °F 43.5 °F 35.6 °F 66% 30.47 in 10.0 mi NE 5.8 mph - N/A   Clear
10:15 PM 46.4 °F 42.4 °F 35.6 °F 66% 30.46 in 10.0 mi NE 8.1 mph - N/A   Clear
10:35 PM 46.4 °F 42.9 °F 35.6 °F 66% 30.46 in 10.0 mi NE 6.9 mph - N/A   Clear
10:55 PM 46.4 °F 41.1 °F 35.6 °F 66% 30.46 in 10.0 mi NE 11.5 mph - N/A   Clear
11:15 PM 46.4 °F 42.4 °F 35.6 °F 66% 30.46 in 10.0 mi NE 8.1 mph - N/A   Partly Cloudy
11:35 PM 46.4 °F 42.4 °F 35.6 °F 66% 30.45 in 10.0 mi NE 8.1 mph - N/A   Mostly Cloudy